• en France
  • Liste des pays
  • À 7 jours
  • Température de l'eau
  • Carte satellitaire
  • Carte météo
  • Widgets météo
  • user-avatar
    Se connecter

    Météo par heure à Kipungo

    Ce jour, 14 Novembre, Mercredi

    Heure Température Précipitation Vent Pression Humidité
    00:00 +24°C° 0 mm 1 m/s 652 mmHg 22%
    01:00 +23°C° 0 mm 1 m/s 652 mmHg 24%
    02:00 +22°C° 0 mm 1 m/s 652 mmHg 25%
    03:00 +19°C° 0 mm 0 m/s 651 mmHg 26%
    04:00 +19°C° 0 mm 0 m/s 651 mmHg 27%
    05:00 +22°C° 0 mm 1 m/s 652 mmHg 25%
    06:00 +24°C° 0 mm 1 m/s 653 mmHg 23%
    07:00 +25°C° 0 mm 1 m/s 653 mmHg 21%
    08:00 +28°C° 0 mm 2 m/s 654 mmHg 17%
    09:00 +32°C° 0 mm 4 m/s 654 mmHg 13%
    10:00 +35°C° 0 mm 5 m/s 655 mmHg 9%
    11:00 +37°C° 0 mm 4 m/s 654 mmHg 8%
    12:00 +38°C° 0 mm 4 m/s 654 mmHg 7%
    13:00 +39°C° 0 mm 3 m/s 654 mmHg 6%
    14:00 +39°C° 0 mm 3 m/s 653 mmHg 6%
    15:00 +39°C° 0 mm 3 m/s 653 mmHg 6%
    16:00 +39°C° 0 mm 2 m/s 652 mmHg 6%
    17:00 +36°C° 0 mm 2 m/s 652 mmHg 8%
    18:00 +31°C° 0 mm 1 m/s 652 mmHg 10%
    19:00 +28°C° 0 mm 1 m/s 652 mmHg 12%
    20:00 +27°C° 0 mm 2 m/s 652 mmHg 23%
    21:00 +25°C° 0 mm 2 m/s 653 mmHg 33%
    22:00 +24°C° 0 mm 3 m/s 653 mmHg 44%
    23:00 +23°C° 0 mm 2 m/s 653 mmHg 52%

    Demain, 15 Novembre, Jeudi

    Heure Température Précipitation Vent Pression Humidité
    00:00 +21°C° 0 mm 2 m/s 653 mmHg 60%
    01:00 +21°C° 0 mm 2 m/s 652 mmHg 69%
    02:00 +20°C° 0 mm 2 m/s 652 mmHg 70%
    03:00 +19°C° 0 mm 2 m/s 652 mmHg 72%
    04:00 +19°C° 0 mm 2 m/s 652 mmHg 74%
    05:00 +20°C° 0 mm 2 m/s 653 mmHg 67%
    06:00 +22°C° 0 mm 1 m/s 653 mmHg 60%
    07:00 +24°C° 0 mm 1 m/s 654 mmHg 53%
    08:00 +28°C° 0 mm 1 m/s 655 mmHg 41%
    09:00 +32°C° 0 mm 1 m/s 656 mmHg 30%
    10:00 +36°C° 0 mm 1 m/s 657 mmHg 18%
    11:00 +38°C° 0 mm 2 m/s 656 mmHg 16%
    12:00 +38°C° 0 mm 3 m/s 655 mmHg 13%
    13:00 +40°C° 0 mm 4 m/s 654 mmHg 11%
    14:00 +39°C° 0 mm 3 m/s 654 mmHg 11%
    15:00 +39°C° 0 mm 3 m/s 653 mmHg 10%
    16:00 +39°C° 0 mm 2 m/s 653 mmHg 10%
    17:00 +36°C° 0 mm 2 m/s 653 mmHg 14%
    18:00 +32°C° 0 mm 2 m/s 653 mmHg 17%
    19:00 +29°C° 0 mm 1 m/s 653 mmHg 20%
    20:00 +27°C° 0 mm 2 m/s 653 mmHg 32%
    21:00 +26°C° 0 mm 3 m/s 653 mmHg 44%
    22:00 +24°C° 0 mm 3 m/s 654 mmHg 55%
    23:00 +24°C° 0 mm 3 m/s 653 mmHg 60%

    Après-demain, 16 Novembre, Vendredi

    Heure Température Précipitation Vent Pression Humidité
    00:00 +22°C° 0 mm 3 m/s 653 mmHg 64%
    01:00 +21°C° 0 mm 3 m/s 652 mmHg 69%
    02:00 +20°C° 0 mm 2 m/s 652 mmHg 72%
    03:00 +20°C° 0 mm 2 m/s 652 mmHg 74%
    04:00 +20°C° 0 mm 1 m/s 652 mmHg 77%
    05:00 +20°C° 0 mm 2 m/s 652 mmHg 72%
    06:00 +21°C° 0 mm 2 m/s 653 mmHg 67%
    07:00 +23°C° 0 mm 2 m/s 654 mmHg 62%
    08:00 +27°C° 0 mm 2 m/s 655 mmHg 49%
    09:00 +31°C° 0 mm 1 m/s 656 mmHg 36%
    10:00 +35°C° 0 mm 1 m/s 657 mmHg 24%
    11:00 +37°C° 0 mm 2 m/s 656 mmHg 20%
    12:00 +38°C° 0 mm 2 m/s 656 mmHg 16%
    13:00 +39°C° 0 mm 3 m/s 655 mmHg 13%
    14:00 +39°C° 0 mm 3 m/s 655 mmHg 12%
    15:00 +39°C° 0 mm 3 m/s 654 mmHg 12%
    16:00 +38°C° 0 mm 3 m/s 653 mmHg 12%
    17:00 +36°C° 0 mm 3 m/s 653 mmHg 17%
    18:00 +32°C° 0 mm 2 m/s 653 mmHg 22%
    19:00 +29°C° 0 mm 2 m/s 653 mmHg 27%
    20:00 +28°C° 0 mm 3 m/s 653 mmHg 38%
    21:00 +26°C° 0 mm 3 m/s 654 mmHg 49%
    22:00 +25°C° 0 mm 4 m/s 654 mmHg 60%
    23:00 +24°C° 0 mm 3 m/s 653 mmHg 64%

    17 Novembre, Samedi

    Heure Température Précipitation Vent Pression Humidité
    00:00 +22°C° 0 mm 3 m/s 653 mmHg 68%
    01:00 +21°C° 0 mm 3 m/s 653 mmHg 72%
    02:00 +20°C° 0 mm 2 m/s 653 mmHg 75%
    03:00 +20°C° 0 mm 2 m/s 652 mmHg 78%
    04:00 +19°C° 0 mm 2 m/s 652 mmHg 81%
    05:00 +20°C° 0 mm 2 m/s 653 mmHg 76%
    06:00 +21°C° 0 mm 2 m/s 654 mmHg 70%
    07:00 +23°C° 0 mm 2 m/s 654 mmHg 65%
    08:00 +27°C° 0 mm 2 m/s 655 mmHg 52%
    09:00 +31°C° 0 mm 1 m/s 656 mmHg 39%
    10:00 +35°C° 0 mm 1 m/s 657 mmHg 26%
    11:00 +36°C° 0 mm 1 m/s 656 mmHg 23%
    12:00 +39°C° 0 mm 1 m/s 656 mmHg 19%
    13:00 +40°C° 0 mm 2 m/s 655 mmHg 15%
    14:00 +39°C° 0 mm 2 m/s 655 mmHg 16%
    15:00 +37°C° 0 mm 1 m/s 654 mmHg 16%
    16:00 +36°C° 0 mm 1 m/s 653 mmHg 16%
    17:00 +35°C° 0 mm 2 m/s 653 mmHg 22%
    18:00 +33°C° 0 mm 3 m/s 653 mmHg 29%
    19:00 +29°C° 0 mm 3 m/s 654 mmHg 35%
    20:00 +28°C° 0 mm 3 m/s 654 mmHg 42%
    21:00 +26°C° 0 mm 3 m/s 654 mmHg 48%
    22:00 +25°C° 0 mm 3 m/s 655 mmHg 55%
    23:00 +24°C° 0 mm 3 m/s 654 mmHg 58%

    18 Novembre, Dimanche

    Heure Température Précipitation Vent Pression Humidité
    00:00 +22°C° 0 mm 3 m/s 654 mmHg 61%
    01:00 +21°C° 0 mm 2 m/s 653 mmHg 65%
    02:00 +21°C° 0 mm 2 m/s 653 mmHg 66%
    03:00 +20°C° 0 mm 2 m/s 653 mmHg 68%
    04:00 +20°C° 0 mm 2 m/s 653 mmHg 69%
    05:00 +22°C° 0 mm 1 m/s 653 mmHg 64%
    06:00 +23°C° 0 mm 1 m/s 654 mmHg 58%
    07:00 +24°C° 0 mm 1 m/s 655 mmHg 53%
    08:00 +28°C° 0 mm 1 m/s 655 mmHg 43%
    09:00 +32°C° 0 mm 1 m/s 656 mmHg 33%
    10:00 +36°C° 0 mm 1 m/s 657 mmHg 24%
    11:00 +37°C° 0 mm 1 m/s 656 mmHg 21%
    12:00 +40°C° 0 mm 1 m/s 656 mmHg 18%
    13:00 +42°C° 0 mm 1 m/s 655 mmHg 15%
    14:00 +40°C° 0 mm 1 m/s 655 mmHg 17%
    15:00 +38°C° 0 mm 2 m/s 654 mmHg 18%
    16:00 +36°C° 0 mm 2 m/s 653 mmHg 20%
    17:00 +34°C° 0 mm 2 m/s 653 mmHg 26%
    18:00 +31°C° 0 mm 3 m/s 653 mmHg 32%
    19:00 +28°C° 0 mm 3 m/s 653 mmHg 38%
    20:00 +27°C° 0 mm 3 m/s 653 mmHg 43%
    21:00 +26°C° 0 mm 3 m/s 654 mmHg 48%
    22:00 +25°C° 0 mm 3 m/s 654 mmHg 53%
    23:00 +24°C° 0 mm 2 m/s 654 mmHg 57%

    19 Novembre, Lundi

    Heure Température Précipitation Vent Pression Humidité
    00:00 +23°C° 0 mm 2 m/s 653 mmHg 60%
    01:00 +21°C° 0 mm 2 m/s 653 mmHg 64%
    02:00 +22°C° 0 mm 1 m/s 653 mmHg 66%
    03:00 +21°C° 0 mm 1 m/s 652 mmHg 68%
    04:00 +19°C° 0 mm 0 m/s 652 mmHg 69%
    05:00 +22°C° 0 mm 1 m/s 653 mmHg 65%
    06:00 +23°C° 0 mm 1 m/s 654 mmHg 61%
    07:00 +24°C° 0 mm 1 m/s 654 mmHg 57%
    08:00 +27°C° 0 mm 1 m/s 655 mmHg 47%
    09:00 +30°C° 0 mm 1 m/s 656 mmHg 37%
    10:00 +34°C° 0 mm 1 m/s 656 mmHg 27%
    11:00 +36°C° 0 mm 1 m/s 656 mmHg 24%
    12:00 +40°C° 0 mm 1 m/s 656 mmHg 20%
    13:00 +40°C° 0 mm 0 m/s 656 mmHg 16%
    14:00 +38°C° 0 mm 0 m/s 655 mmHg 18%
    15:00 +36°C° 0 mm 0 m/s 654 mmHg 20%
    16:00 +34°C° 0 mm 0 m/s 653 mmHg 21%
    17:00 +34°C° 0 mm 1 m/s 653 mmHg 25%
    18:00 +32°C° 0 mm 2 m/s 653 mmHg 28%
    19:00 +30°C° 0 mm 3 m/s 654 mmHg 32%
    20:00 +28°C° 0 mm 3 m/s 654 mmHg 39%
    21:00 +27°C° 0 mm 3 m/s 654 mmHg 46%
    22:00 +25°C° 0 mm 2 m/s 654 mmHg 53%
    23:00 +24°C° 0 mm 2 m/s 653 mmHg 56%
    Voir plus